Home > Weather > Orlando > Past weeks

Flag for U.S.A. Weather for the Past 2 Weeks in Orlando, Florida, U.S.A.

Now
54 °F

Clear.


Feels Like: 51 °F
Forecast: 47 / 65 °F
Wind: 10 mph from Northeast

Location: Orlando Executive Airport

Current Time: Feb 13, 2016 at 9:57:19 PM

Latest Report: Feb 13, 2016 at 8:53 PM


Visibility: 10 mi

Pressure: 30.29 "Hg

Humidity: 59%

Dew point: 40 °F

Location of OrlandoLocation

Historic Weather in Orlando — Graph

°F

Orlando Temperature Yesterday

Maximum temperature yesterday: 75 °F (at 1:53 PM)
Minimum temperature yesterday: 47 °F (at 6:53 AM)
Average temperature yesterday: 61 °F

High & Low Weather Summary for the Past Weeks

 TemperatureHumidityPressure
High83 °F (Feb 2, 12:53 PM)97% (Feb 2, 6:53 AM)30.36 "Hg (Feb 2, 6:53 AM)
Low40 °F (Feb 11, 2:53 AM)22% (Feb 10, 4:53 PM)29.86 "Hg (Feb 8, 10:53 PM)
Average61 °F64%30.13 "Hg
* Reported Jan 29 7:53 PM — Feb 13 7:53 PM, Orlando, Weather by CustomWeather, © 2016

Note: Actual official high and low records may vary slightly from our data, if they occured in-between our weather recording intervals... More about our weather records

Advertising

Orlando Weather History for the Previous 24 Hours

 ConditionsComfort  
Time TempWeatherWind HumidityBarometerVisibility
7:53 PM
Sat, Feb 13
56 °FClear.10 mph55%30.26 "Hg10 mi
6:53 PM62 °FClear.10 mph39%30.24 "Hg10 mi
5:53 PM67 °FSunny.9 mph27%30.23 "Hg10 mi
4:53 PM69 °FSunny.9 mph30%30.22 "Hg10 mi
3:53 PM71 °FSunny.10 mph28%30.21 "Hg10 mi
2:53 PM69 °FSunny.7 mph30%30.20 "Hg10 mi
1:53 PM69 °FSunny.8 mph30%30.22 "Hg10 mi
12:53 PM69 °FSunny.9 mph32%30.24 "Hg10 mi
11:53 AM67 °FSunny.9 mph36%30.27 "Hg10 mi
10:53 AM65 °FSunny.8 mph51%30.28 "Hg10 mi
9:53 AM63 °FSunny.12 mph56%30.27 "Hg10 mi
8:53 AM61 °FSunny.8 mph72%30.26 "Hg10 mi
7:53 AM59 °FSunny.7 mph90%30.23 "Hg10 mi
6:53 AM58 °FClear.6 mph90%30.21 "Hg10 mi
5:53 AM59 °FClear.6 mph90%30.19 "Hg10 mi
4:53 AM60 °FPassing clouds.12 mph86%30.17 "Hg10 mi
3:53 AM59 °FClear.9 mph87%30.16 "Hg10 mi
2:53 AM60 °FClear.9 mph83%30.17 "Hg10 mi
1:53 AM60 °FClear.12 mph83%30.19 "Hg10 mi
12:53 AM60 °FClear.9 mph80%30.19 "Hg10 mi
11:53 PM
Fri, Feb 12
61 °FClear.9 mph78%30.20 "Hg10 mi
10:53 PM61 °FClear.9 mph75%30.20 "Hg10 mi
9:53 PM63 °FClear.12 mph70%30.21 "Hg10 mi
Weather by CustomWeather, © 2016

See weather overviewHow to use our weather pages